STARS-EC (47928 NORAD) Tracking and Keplerian Element Data

This shows tracking and keplerian element data for the satellite.

Feedback or suggestion? Click here.




ElementValue
Catalog47928
NameSTARS-EC
Epoch Orbit6180
Epoch Day104.47055876
Epoch Year2022
RAAN261.9795
Inclination51.623
Eccentricity0.0013168
Argument of Perigee299.4513
Mean Anonmoly60.5188
Mean Motion16.11452508
Decay Rate0.01896238
L11 47928U 98067SE 22104.47055876 .01896238 30793-2 18397-2 0 9992
L22 47928 51.6230 261.9795 0013168 299.4513 60.5188 16.11452508 61806



Live tracking and technical data element details for STARS-EC (NORAD 47928). STARS-EC can be tracked NOW for your location showing map with azimuth and elevation plus other details from your city location.







IsCatalogInMostPopularTable: catalog: 47928, numindb: 149
Update: records affected: 1



GetName: 47928 STARS-EC

Hit Count: updated at: Thu, 23 Jan 2025 17:00:57 GMT